Location: Harwich
(41.7160°N, 69.9939°W)
Time: 12:04:30
(UTC+02:00)

XW-2B - Visible Passes

Search period start: 16 September 2024 00:00
Search period end: 26 September 2024 00:00
Orbit: 373 x 375 km, 97.5° (Epoch: 15 September)

Date Brightness Start Highest point End Pass type
(mag) Time Alt. Az. Time Alt. Az. Time Alt. Az.
17 Sep ? 01:29:48 10° S 01:32:43 68° WSW 01:35:41 10° NNW visible
18 Sep ? 02:03:23 10° SSW 02:05:40 20° W 02:07:59 10° NW visible
20 Sep ? 01:36:29 10° S 01:39:22 53° W 01:42:15 10° NNW visible
21 Sep ? 02:09:28 10° SW 02:11:31 17° W 02:13:35 10° NW visible
22 Sep ? 01:09:16 10° SSE 01:12:06 49° ENE 01:14:57 10° N visible
23 Sep ? 01:40:46 10° S 01:43:35 46° W 01:46:26 10° NNW visible
24 Sep ? 02:13:01 10° SW 02:14:56 16° W 02:16:50 10° NW visible
25 Sep ? 01:11:53 10° SSE 01:14:44 52° ENE 01:17:34 10° N visible
